Year,Month,Day,Hour,Minute,Value (Times are PST for temperature in C)
2009,09,23,00,00,14.80
2009,09,23,00,01,14.80
2009,09,23,00,02,14.80
2009,09,23,00,03,14.80
2009,09,23,00,04,14.80
2009,09,23,00,05,14.80
2009,09,23,00,06,14.80
2009,09,23,00,07,14.80
2009,09,23,00,08,14.80
2009,09,23,00,09,14.90
2009,09,23,00,10,14.90
2009,09,23,00,11,15.00
2009,09,23,00,12,15.00
2009,09,23,00,13,15.00
2009,09,23,00,14,15.00
2009,09,23,00,15,15.00
2009,09,23,00,16,15.00
2009,09,23,00,17,15.10
2009,09,23,00,18,15.10
2009,09,23,00,19,15.00
2009,09,23,00,20,15.00
2009,09,23,00,21,14.90
2009,09,23,00,22,14.90
2009,09,23,00,23,14.80
2009,09,23,00,24,14.80
2009,09,23,00,25,14.80
2009,09,23,00,26,14.70
2009,09,23,00,27,14.70
2009,09,23,00,28,14.60
2009,09,23,00,29,14.60
2009,09,23,00,30,14.50
2009,09,23,00,31,14.50
2009,09,23,00,32,14.50
2009,09,23,00,33,14.40
2009,09,23,00,34,14.40
2009,09,23,00,35,14.40
2009,09,23,00,36,14.40
2009,09,23,00,37,14.40
2009,09,23,00,38,14.40
2009,09,23,00,39,14.40
2009,09,23,00,40,14.40
2009,09,23,00,41,14.30
2009,09,23,00,42,14.30
2009,09,23,00,43,14.30
2009,09,23,00,44,14.30
2009,09,23,00,45,14.20
2009,09,23,00,46,14.20
2009,09,23,00,47,14.20
2009,09,23,00,48,14.20
2009,09,23,00,49,14.20
2009,09,23,00,50,14.20
2009,09,23,00,51,14.20
2009,09,23,00,52,14.20
2009,09,23,00,53,14.20
2009,09,23,00,54,14.20
2009,09,23,00,55,14.20
2009,09,23,00,56,14.20
2009,09,23,00,57,14.20
2009,09,23,00,58,14.20
2009,09,23,00,59,14.20
2009,09,23,01,00,14.20
2009,09,23,01,01,14.20
2009,09,23,01,02,14.20
2009,09,23,01,03,14.20
2009,09,23,01,04,14.20
2009,09,23,01,05,14.20
2009,09,23,01,06,14.20
2009,09,23,01,07,14.20
2009,09,23,01,08,14.20
2009,09,23,01,09,14.20
2009,09,23,01,10,14.20
2009,09,23,01,11,14.20
2009,09,23,01,12,14.20
2009,09,23,01,13,14.10
2009,09,23,01,14,14.10
2009,09,23,01,15,14.00
2009,09,23,01,16,14.00
2009,09,23,01,17,14.00
2009,09,23,01,18,13.90
2009,09,23,01,19,13.90
2009,09,23,01,20,13.80
2009,09,23,01,21,13.80
2009,09,23,01,22,13.70
2009,09,23,01,23,13.70
2009,09,23,01,24,13.70
2009,09,23,01,25,13.70
2009,09,23,01,26,13.70
2009,09,23,01,27,13.60
2009,09,23,01,28,13.60
2009,09,23,01,29,13.50
2009,09,23,01,30,13.50
2009,09,23,01,31,13.50
2009,09,23,01,32,13.40
2009,09,23,01,33,13.40
2009,09,23,01,34,13.30
2009,09,23,01,35,13.30
2009,09,23,01,36,13.30
2009,09,23,01,37,13.30
2009,09,23,01,38,13.30
2009,09,23,01,39,13.30
2009,09,23,01,40,13.30
2009,09,23,01,41,13.30
2009,09,23,01,42,13.30
2009,09,23,01,43,13.30
2009,09,23,01,44,13.30
2009,09,23,01,45,13.30
2009,09,23,01,46,13.30
2009,09,23,01,47,13.30
2009,09,23,01,48,13.30
2009,09,23,01,49,13.30
2009,09,23,01,50,13.30
2009,09,23,01,51,13.30
2009,09,23,01,52,13.30
2009,09,23,01,53,13.30
2009,09,23,01,54,13.30
2009,09,23,01,55,13.30
2009,09,23,01,56,13.30
2009,09,23,01,57,13.30
2009,09,23,01,58,13.30
2009,09,23,01,59,13.30
2009,09,23,02,00,13.30
2009,09,23,02,01,13.30
2009,09,23,02,02,13.30
2009,09,23,02,03,13.30
2009,09,23,02,04,13.30
2009,09,23,02,05,13.30
2009,09,23,02,06,13.20
2009,09,23,02,07,13.20
2009,09,23,02,08,13.20
2009,09,23,02,09,13.20
2009,09,23,02,10,13.20
2009,09,23,02,11,13.20
2009,09,23,02,12,13.30
2009,09,23,02,13,13.30
2009,09,23,02,14,13.30
2009,09,23,02,15,13.30
2009,09,23,02,16,13.30
2009,09,23,02,17,13.20
2009,09,23,02,18,13.20
2009,09,23,02,19,13.20
2009,09,23,02,20,13.20
2009,09,23,02,21,13.20
2009,09,23,02,22,13.20
2009,09,23,02,23,13.20
2009,09,23,02,24,13.20
2009,09,23,02,25,13.10
2009,09,23,02,26,13.10
2009,09,23,02,27,13.10
2009,09,23,02,28,13.10
2009,09,23,02,29,13.10
2009,09,23,02,30,13.10
2009,09,23,02,31,13.10
2009,09,23,02,32,13.10
2009,09,23,02,33,13.10
2009,09,23,02,34,13.10
2009,09,23,02,35,13.10
2009,09,23,02,36,13.10
2009,09,23,02,37,13.10
2009,09,23,02,38,13.10
2009,09,23,02,39,13.10
2009,09,23,02,40,13.10
2009,09,23,02,41,13.10
2009,09,23,02,42,13.10
2009,09,23,02,43,13.20
2009,09,23,02,44,13.20
2009,09,23,02,45,13.20
2009,09,23,02,46,13.20
2009,09,23,02,47,13.20
2009,09,23,02,48,13.10
2009,09,23,02,49,13.10
2009,09,23,02,50,13.10
2009,09,23,02,51,13.00
2009,09,23,02,52,13.00
2009,09,23,02,53,12.90
2009,09,23,02,54,12.90
2009,09,23,02,55,12.90
2009,09,23,02,56,12.80
2009,09,23,02,57,12.80
2009,09,23,02,58,12.80
2009,09,23,02,59,12.80
2009,09,23,03,00,12.70
2009,09,23,03,01,12.70
2009,09,23,03,02,12.70
2009,09,23,03,03,12.60
2009,09,23,03,04,12.60
2009,09,23,03,05,12.60
2009,09,23,03,06,12.60
2009,09,23,03,07,12.50
2009,09,23,03,08,12.50
2009,09,23,03,09,12.50
2009,09,23,03,10,12.50
2009,09,23,03,11,12.60
2009,09,23,03,12,12.60
2009,09,23,03,13,12.60
2009,09,23,03,14,12.60
2009,09,23,03,15,12.60
2009,09,23,03,16,12.60
2009,09,23,03,17,12.60
2009,09,23,03,18,12.60
2009,09,23,03,19,12.60
2009,09,23,03,20,12.50
2009,09,23,03,21,12.50
2009,09,23,03,22,12.50
2009,09,23,03,23,12.50
2009,09,23,03,24,12.40
2009,09,23,03,25,12.40
2009,09,23,03,26,12.40
2009,09,23,03,27,12.50
2009,09,23,03,28,12.50
2009,09,23,03,29,12.50
2009,09,23,03,30,12.50
2009,09,23,03,31,12.40
2009,09,23,03,32,12.40
2009,09,23,03,33,12.40
2009,09,23,03,34,12.40
2009,09,23,03,35,12.40
2009,09,23,03,36,12.40
2009,09,23,03,37,12.40
2009,09,23,03,38,12.40
2009,09,23,03,39,12.40
2009,09,23,03,40,12.40
2009,09,23,03,41,12.40
2009,09,23,03,42,12.40
2009,09,23,03,43,12.40
2009,09,23,03,44,12.40
2009,09,23,03,45,12.40
2009,09,23,03,46,12.40
2009,09,23,03,47,12.40
2009,09,23,03,48,12.50
2009,09,23,03,49,12.50
2009,09,23,03,50,12.50
2009,09,23,03,51,12.50
2009,09,23,03,52,12.50
2009,09,23,03,53,12.50
2009,09,23,03,54,12.50
2009,09,23,03,55,12.50
2009,09,23,03,56,12.40
2009,09,23,03,57,12.40
2009,09,23,03,58,12.40
2009,09,23,03,59,12.30
2009,09,23,04,00,12.30
2009,09,23,04,01,12.30
2009,09,23,04,02,12.30
2009,09,23,04,03,12.30
2009,09,23,04,04,12.30
2009,09,23,04,05,12.30
2009,09,23,04,06,12.30
2009,09,23,04,07,12.30
2009,09,23,04,08,12.30
2009,09,23,04,09,12.30
2009,09,23,04,10,12.30
2009,09,23,04,11,12.30
2009,09,23,04,12,12.30
2009,09,23,04,13,12.30
2009,09,23,04,14,12.30
2009,09,23,04,15,12.30
2009,09,23,04,16,12.30
2009,09,23,04,17,12.30
2009,09,23,04,18,12.30
2009,09,23,04,19,12.30
2009,09,23,04,20,12.30
2009,09,23,04,21,12.30
2009,09,23,04,22,12.30
2009,09,23,04,23,12.20
2009,09,23,04,24,12.20
2009,09,23,04,25,12.20
2009,09,23,04,26,12.20
2009,09,23,04,27,12.20
2009,09,23,04,28,12.20
2009,09,23,04,29,12.20
2009,09,23,04,30,12.30
2009,09,23,04,31,12.30
2009,09,23,04,32,12.30
2009,09,23,04,33,12.40
2009,09,23,04,34,12.40
2009,09,23,04,35,12.50
2009,09,23,04,36,12.60
2009,09,23,04,37,12.60
2009,09,23,04,38,12.60
2009,09,23,04,39,12.60
2009,09,23,04,40,12.70
2009,09,23,04,41,12.60
2009,09,23,04,42,12.60
2009,09,23,04,43,12.60
2009,09,23,04,44,12.60
2009,09,23,04,45,12.60
2009,09,23,04,46,12.60
2009,09,23,04,47,12.60
2009,09,23,04,48,12.50
2009,09,23,04,49,12.50
2009,09,23,04,50,12.50
2009,09,23,04,51,12.50
2009,09,23,04,52,12.40
2009,09,23,04,53,12.40
2009,09,23,04,54,12.30
2009,09,23,04,55,12.30
2009,09,23,04,56,12.30
2009,09,23,04,57,12.30
2009,09,23,04,58,12.30
2009,09,23,04,59,12.30
2009,09,23,05,00,12.30
2009,09,23,05,01,12.30
2009,09,23,05,02,12.30
2009,09,23,05,03,12.30
2009,09,23,05,04,12.30
2009,09,23,05,05,12.30
2009,09,23,05,06,12.30
2009,09,23,05,07,12.30
2009,09,23,05,08,12.30
2009,09,23,05,09,12.30
2009,09,23,05,10,12.20
2009,09,23,05,11,12.20
2009,09,23,05,12,12.20
2009,09,23,05,13,12.20
2009,09,23,05,14,12.10
2009,09,23,05,15,12.10
2009,09,23,05,16,12.10
2009,09,23,05,17,12.10
2009,09,23,05,18,12.10
2009,09,23,05,19,12.10
2009,09,23,05,20,12.10
2009,09,23,05,21,12.10
2009,09,23,05,22,12.10
2009,09,23,05,23,12.10
2009,09,23,05,24,12.10
2009,09,23,05,25,12.00
2009,09,23,05,26,12.00
2009,09,23,05,27,12.00
2009,09,23,05,28,12.00
2009,09,23,05,29,12.00
2009,09,23,05,30,12.00
2009,09,23,05,31,11.90
2009,09,23,05,32,11.90
2009,09,23,05,33,11.90
2009,09,23,05,34,11.90
2009,09,23,05,35,11.90
2009,09,23,05,36,11.90
2009,09,23,05,37,11.90
2009,09,23,05,38,12.00
2009,09,23,05,39,12.00
2009,09,23,05,40,12.00
2009,09,23,05,41,12.00
2009,09,23,05,42,12.00
2009,09,23,05,43,12.00
2009,09,23,05,44,12.00
2009,09,23,05,45,12.00
2009,09,23,05,46,12.00
2009,09,23,05,47,12.10
2009,09,23,05,48,12.10
2009,09,23,05,49,12.10
2009,09,23,05,50,12.10
2009,09,23,05,51,12.20
2009,09,23,05,52,12.20
2009,09,23,05,53,12.10
2009,09,23,05,54,12.10
2009,09,23,05,55,12.10
2009,09,23,05,56,12.10
2009,09,23,05,57,12.10
2009,09,23,05,58,12.00
2009,09,23,05,59,12.00
2009,09,23,06,00,12.00
2009,09,23,06,01,11.90
2009,09,23,06,02,11.90
2009,09,23,06,03,11.90
2009,09,23,06,04,11.80
2009,09,23,06,05,11.80
2009,09,23,06,06,11.80
2009,09,23,06,07,11.80
2009,09,23,06,08,11.70
2009,09,23,06,09,11.70
2009,09,23,06,10,11.70
2009,09,23,06,11,11.60
2009,09,23,06,12,11.60
2009,09,23,06,13,11.60
2009,09,23,06,14,11.60
2009,09,23,06,15,11.60
2009,09,23,06,16,11.60
2009,09,23,06,17,11.60
2009,09,23,06,18,11.60
2009,09,23,06,19,11.60
2009,09,23,06,20,11.60
2009,09,23,06,21,11.60
2009,09,23,06,22,11.60
2009,09,23,06,23,11.60
2009,09,23,06,24,11.60
2009,09,23,06,25,11.60
2009,09,23,06,26,11.60
2009,09,23,06,27,11.60
2009,09,23,06,28,11.60
2009,09,23,06,29,11.50
2009,09,23,06,30,11.40
2009,09,23,06,31,11.40
2009,09,23,06,32,11.40
2009,09,23,06,33,11.40
2009,09,23,06,34,11.40
2009,09,23,06,35,11.40
2009,09,23,06,36,11.40
2009,09,23,06,37,11.40
2009,09,23,06,38,11.40
2009,09,23,06,39,11.40
2009,09,23,06,40,11.40
2009,09,23,06,41,11.40
2009,09,23,06,42,11.40
2009,09,23,06,43,11.40
2009,09,23,06,44,11.40
2009,09,23,06,45,11.40
2009,09,23,06,46,11.40
2009,09,23,06,47,11.40
2009,09,23,06,48,11.40
2009,09,23,06,49,11.40
2009,09,23,06,50,11.40
2009,09,23,06,51,11.40
2009,09,23,06,52,11.40
2009,09,23,06,53,11.40
2009,09,23,06,54,11.40
2009,09,23,06,55,11.40
2009,09,23,06,56,11.40
2009,09,23,06,57,11.40
2009,09,23,06,58,11.40
2009,09,23,06,59,11.40
2009,09,23,07,00,11.40
2009,09,23,07,01,11.40
2009,09,23,07,02,11.40
2009,09,23,07,03,11.40
2009,09,23,07,04,11.40
2009,09,23,07,05,11.40
2009,09,23,07,06,11.40
2009,09,23,07,07,11.40
2009,09,23,07,08,11.40
2009,09,23,07,09,11.40
2009,09,23,07,10,11.40
2009,09,23,07,11,11.40
2009,09,23,07,12,11.40
2009,09,23,07,13,11.40
2009,09,23,07,14,11.40
2009,09,23,07,15,11.40
2009,09,23,07,16,11.30
2009,09,23,07,17,11.40
2009,09,23,07,18,11.40
2009,09,23,07,19,11.40
2009,09,23,07,20,11.40
2009,09,23,07,21,11.40
2009,09,23,07,22,11.40
2009,09,23,07,23,11.40
2009,09,23,07,24,11.50
2009,09,23,07,25,11.60
2009,09,23,07,26,11.60
2009,09,23,07,27,11.60
2009,09,23,07,28,11.70
2009,09,23,07,29,11.80
2009,09,23,07,30,11.80
2009,09,23,07,31,11.90
2009,09,23,07,32,11.90
2009,09,23,07,33,12.00
2009,09,23,07,34,12.00
2009,09,23,07,35,12.10
2009,09,23,07,36,12.10
2009,09,23,07,37,12.10
2009,09,23,07,38,12.10
2009,09,23,07,39,12.10
2009,09,23,07,40,12.20
2009,09,23,07,41,12.20
2009,09,23,07,42,12.20
2009,09,23,07,43,12.20
2009,09,23,07,44,12.20
2009,09,23,07,45,12.20
2009,09,23,07,46,12.20
2009,09,23,07,47,12.10
2009,09,23,07,48,12.20
2009,09,23,07,49,12.20
2009,09,23,07,50,12.20
2009,09,23,07,51,12.20
2009,09,23,07,52,12.30
2009,09,23,07,53,12.30
2009,09,23,07,54,12.30
2009,09,23,07,55,12.30
2009,09,23,07,56,12.30
2009,09,23,07,57,12.40
2009,09,23,07,58,12.40
2009,09,23,07,59,12.50
2009,09,23,08,00,12.50
2009,09,23,08,01,12.60
2009,09,23,08,02,12.70
2009,09,23,08,03,12.80
2009,09,23,08,04,12.80
2009,09,23,08,05,12.90
2009,09,23,08,06,12.90
2009,09,23,08,07,13.00
2009,09,23,08,08,13.00
2009,09,23,08,09,13.10
2009,09,23,08,10,13.10
2009,09,23,08,11,13.20
2009,09,23,08,12,13.20
2009,09,23,08,13,13.30
2009,09,23,08,14,13.40
2009,09,23,08,15,13.60
2009,09,23,08,16,13.70
2009,09,23,08,17,13.80
2009,09,23,08,18,13.90
2009,09,23,08,19,14.00
2009,09,23,08,20,14.10
2009,09,23,08,21,14.20
2009,09,23,08,22,14.20
2009,09,23,08,23,14.30
2009,09,23,08,24,14.40
2009,09,23,08,25,14.50
2009,09,23,08,26,14.60
2009,09,23,08,27,14.70
2009,09,23,08,28,14.80
2009,09,23,08,29,14.90
2009,09,23,08,30,14.90
2009,09,23,08,31,15.00
2009,09,23,08,32,15.00
2009,09,23,08,33,15.10
2009,09,23,08,34,15.20
2009,09,23,08,35,15.20
2009,09,23,08,36,15.30
2009,09,23,08,37,15.40
2009,09,23,08,38,15.50
2009,09,23,08,39,15.60
2009,09,23,08,40,15.70
2009,09,23,08,41,15.90
2009,09,23,08,42,16.00
2009,09,23,08,43,16.20
2009,09,23,08,44,16.40
2009,09,23,08,45,16.50
2009,09,23,08,46,16.70
2009,09,23,08,47,16.80
2009,09,23,08,48,16.80
2009,09,23,08,49,16.90
2009,09,23,08,50,17.00
2009,09,23,08,51,17.20
2009,09,23,08,52,17.30
2009,09,23,08,53,17.40
2009,09,23,08,54,17.50
2009,09,23,08,55,17.60
2009,09,23,08,56,17.70
2009,09,23,08,57,17.90
2009,09,23,08,58,17.90
2009,09,23,08,59,18.00
2009,09,23,09,00,18.10
2009,09,23,09,01,18.20
2009,09,23,09,02,18.20
2009,09,23,09,03,18.20
2009,09,23,09,04,18.20
2009,09,23,09,05,18.20
2009,09,23,09,06,18.20
2009,09,23,09,07,18.20
2009,09,23,09,08,18.20
2009,09,23,09,09,18.10
2009,09,23,09,10,18.00
2009,09,23,09,11,17.90
2009,09,23,09,12,17.90
2009,09,23,09,13,17.90
2009,09,23,09,14,17.90
2009,09,23,09,15,17.90
2009,09,23,09,16,17.90
2009,09,23,09,17,17.90
2009,09,23,09,18,18.00
2009,09,23,09,19,18.10
2009,09,23,09,20,18.10
2009,09,23,09,21,18.20
2009,09,23,09,22,18.20
2009,09,23,09,23,18.30
2009,09,23,09,24,18.50
2009,09,23,09,25,18.60
2009,09,23,09,26,18.70
2009,09,23,09,27,18.90
2009,09,23,09,28,18.90
2009,09,23,09,29,19.00
2009,09,23,09,30,19.10
2009,09,23,09,31,19.10
2009,09,23,09,32,19.30
2009,09,23,09,33,19.40
2009,09,23,09,34,19.50
2009,09,23,09,35,19.60
2009,09,23,09,36,19.80
2009,09,23,09,37,19.90
2009,09,23,09,38,20.00
2009,09,23,09,39,20.20
2009,09,23,09,40,20.20
2009,09,23,09,41,20.40
2009,09,23,09,42,20.40
2009,09,23,09,43,20.50
2009,09,23,09,44,20.60
2009,09,23,09,45,20.60
2009,09,23,09,46,20.70
2009,09,23,09,47,20.70
2009,09,23,09,48,20.60
2009,09,23,09,49,20.60
2009,09,23,09,50,20.60
2009,09,23,09,51,20.60
2009,09,23,09,52,20.70
2009,09,23,09,53,20.70
2009,09,23,09,54,20.60
2009,09,23,09,55,20.60
2009,09,23,09,56,20.50
2009,09,23,09,57,20.50
2009,09,23,09,58,20.40
2009,09,23,09,59,20.40
2009,09,23,10,00,20.40
2009,09,23,10,01,20.40
2009,09,23,10,02,20.20
2009,09,23,10,03,20.10
2009,09,23,10,04,20.10
2009,09,23,10,05,20.10
2009,09,23,10,06,20.10
2009,09,23,10,07,20.10
2009,09,23,10,08,20.10
2009,09,23,10,09,20.10
2009,09,23,10,10,20.10
2009,09,23,10,11,20.20
2009,09,23,10,12,20.20
2009,09,23,10,13,20.30
2009,09,23,10,14,20.40
2009,09,23,10,15,20.50
2009,09,23,10,16,20.50
2009,09,23,10,17,20.60
2009,09,23,10,18,20.70
2009,09,23,10,19,20.80
2009,09,23,10,20,20.90
2009,09,23,10,21,21.00
2009,09,23,10,22,21.00
2009,09,23,10,23,21.00
2009,09,23,10,24,21.00
2009,09,23,10,25,21.00
2009,09,23,10,26,21.00
2009,09,23,10,27,21.00
2009,09,23,10,28,21.10
2009,09,23,10,29,21.20
2009,09,23,10,30,21.30
2009,09,23,10,31,21.30
2009,09,23,10,32,21.40
2009,09,23,10,33,21.50
2009,09,23,10,34,21.60
2009,09,23,10,35,21.60
2009,09,23,10,36,21.60
2009,09,23,10,37,21.60
2009,09,23,10,38,21.50
2009,09,23,10,39,21.40
2009,09,23,10,40,21.30
2009,09,23,10,41,21.20
2009,09,23,10,42,21.00
2009,09,23,10,43,21.00
2009,09,23,10,44,20.90
2009,09,23,10,45,21.00
2009,09,23,10,46,21.00
2009,09,23,10,47,21.00
2009,09,23,10,48,21.00
2009,09,23,10,49,21.00
2009,09,23,10,50,21.10
2009,09,23,10,51,21.10
2009,09,23,10,52,21.10
2009,09,23,10,53,21.10
2009,09,23,10,54,21.20
2009,09,23,10,55,21.20
2009,09,23,10,56,21.30
2009,09,23,10,57,21.40
2009,09,23,10,58,21.40
2009,09,23,10,59,21.60
2009,09,23,11,00,21.60
2009,09,23,11,01,21.70
2009,09,23,11,02,21.70
2009,09,23,11,03,21.80
2009,09,23,11,04,21.80
2009,09,23,11,05,21.80
2009,09,23,11,06,21.90
2009,09,23,11,07,21.90
2009,09,23,11,08,21.80
2009,09,23,11,09,21.90
2009,09,23,11,10,21.90
2009,09,23,11,11,22.00
2009,09,23,11,12,22.00
2009,09,23,11,13,22.10
2009,09,23,11,14,22.20
2009,09,23,11,15,22.20
2009,09,23,11,16,22.20
2009,09,23,11,17,22.30
2009,09,23,11,18,22.20
2009,09,23,11,19,22.20
2009,09,23,11,20,22.30
2009,09,23,11,21,22.30
2009,09,23,11,22,22.30
2009,09,23,11,23,22.30
2009,09,23,11,24,22.30
2009,09,23,11,25,22.30
2009,09,23,11,26,22.40
2009,09,23,11,27,22.40
2009,09,23,11,28,22.40
2009,09,23,11,29,22.40
2009,09,23,11,30,22.40
2009,09,23,11,31,22.30
2009,09,23,11,32,22.30
2009,09,23,11,33,22.20
2009,09,23,11,34,22.10
2009,09,23,11,35,22.00
2009,09,23,11,36,22.00
2009,09,23,11,37,22.00
2009,09,23,11,38,22.10
2009,09,23,11,39,22.20
2009,09,23,11,40,22.20
2009,09,23,11,41,22.30
2009,09,23,11,42,22.40
2009,09,23,11,43,22.60
2009,09,23,11,44,22.60
2009,09,23,11,45,22.60
2009,09,23,11,46,22.70
2009,09,23,11,47,22.80
2009,09,23,11,48,22.90
2009,09,23,11,49,22.90
2009,09,23,11,50,22.90
2009,09,23,11,51,22.90
2009,09,23,11,52,22.80
2009,09,23,11,53,22.70
2009,09,23,11,54,22.70
2009,09,23,11,55,22.80
2009,09,23,11,56,22.90
2009,09,23,11,57,22.90
2009,09,23,11,58,22.90
2009,09,23,11,59,23.10
2009,09,23,12,00,23.20
2009,09,23,12,01,23.30
2009,09,23,12,02,23.30
2009,09,23,12,03,23.30
2009,09,23,12,04,23.40
2009,09,23,12,05,23.60
2009,09,23,12,06,23.70
2009,09,23,12,07,23.90
2009,09,23,12,08,24.00
2009,09,23,12,09,24.10
2009,09,23,12,10,24.20
2009,09,23,12,11,24.30
2009,09,23,12,12,24.30
2009,09,23,12,13,24.30
2009,09,23,12,14,24.30
2009,09,23,12,15,24.40
2009,09,23,12,16,24.40
2009,09,23,12,17,24.50
2009,09,23,12,18,24.50
2009,09,23,12,19,24.50
2009,09,23,12,20,24.50
2009,09,23,12,21,24.60
2009,09,23,12,22,24.60
2009,09,23,12,23,24.60
2009,09,23,12,24,24.70
2009,09,23,12,25,24.80
2009,09,23,12,26,24.80
2009,09,23,12,27,24.90
2009,09,23,12,28,25.00
2009,09,23,12,29,24.90
2009,09,23,12,30,24.80
2009,09,23,12,31,24.70
2009,09,23,12,32,24.70
2009,09,23,12,33,24.80
2009,09,23,12,34,24.80
2009,09,23,12,35,24.90
2009,09,23,12,36,24.90
2009,09,23,12,37,25.00
2009,09,23,12,38,25.00
2009,09,23,12,39,25.10
2009,09,23,12,40,25.20
2009,09,23,12,41,25.20
2009,09,23,12,42,25.20
2009,09,23,12,43,25.30
2009,09,23,12,44,25.30
2009,09,23,12,45,25.20
2009,09,23,12,46,25.10
2009,09,23,12,47,25.00
2009,09,23,12,48,25.00
2009,09,23,12,49,25.10
2009,09,23,12,50,25.10
2009,09,23,12,51,25.00
2009,09,23,12,52,25.10
2009,09,23,12,53,25.10
2009,09,23,12,54,25.20
2009,09,23,12,55,25.20
2009,09,23,12,56,25.30
2009,09,23,12,57,25.40
2009,09,23,12,58,25.40
2009,09,23,12,59,25.30
2009,09,23,13,00,25.10
2009,09,23,13,01,24.80
2009,09,23,13,02,24.60
2009,09,23,13,03,24.40
2009,09,23,13,04,24.30
2009,09,23,13,05,24.20
2009,09,23,13,06,24.20
2009,09,23,13,07,24.10
2009,09,23,13,08,24.10
2009,09,23,13,09,24.00
2009,09,23,13,10,23.80
2009,09,23,13,11,23.50
2009,09,23,13,12,23.10
2009,09,23,13,13,22.80
2009,09,23,13,14,22.60
2009,09,23,13,15,22.50
2009,09,23,13,16,22.50
2009,09,23,13,17,22.60
2009,09,23,13,18,22.70
2009,09,23,13,19,22.70
2009,09,23,13,20,22.80
2009,09,23,13,21,22.90
2009,09,23,13,22,23.00
2009,09,23,13,23,23.20
2009,09,23,13,24,23.40
2009,09,23,13,25,23.60
2009,09,23,13,26,23.70
2009,09,23,13,27,23.60
2009,09,23,13,28,23.50
2009,09,23,13,29,23.30
2009,09,23,13,30,23.30
2009,09,23,13,31,23.20
2009,09,23,13,32,23.00
2009,09,23,13,33,22.90
2009,09,23,13,34,22.90
2009,09,23,13,35,22.90
2009,09,23,13,36,22.90
2009,09,23,13,37,22.90
2009,09,23,13,38,22.90
2009,09,23,13,39,23.00
2009,09,23,13,40,23.10
2009,09,23,13,41,23.20
2009,09,23,13,42,23.30
2009,09,23,13,43,23.50
2009,09,23,13,44,23.60
2009,09,23,13,45,23.60
2009,09,23,13,46,23.70
2009,09,23,13,47,23.70
2009,09,23,13,48,23.80
2009,09,23,13,49,23.80
2009,09,23,13,50,24.00
2009,09,23,13,51,24.30
2009,09,23,13,52,24.70
2009,09,23,13,53,25.20
2009,09,23,13,54,25.60
2009,09,23,13,55,26.10
2009,09,23,13,56,26.40
2009,09,23,13,57,26.70
2009,09,23,13,58,26.90
2009,09,23,13,59,27.20
2009,09,23,14,00,27.30
2009,09,23,14,01,27.40
2009,09,23,14,02,27.50
2009,09,23,14,03,27.60
2009,09,23,14,04,27.60
2009,09,23,14,05,27.60
2009,09,23,14,06,27.60
2009,09,23,14,07,27.70
2009,09,23,14,08,27.60
2009,09,23,14,09,27.60
2009,09,23,14,10,27.60
2009,09,23,14,11,27.60
2009,09,23,14,12,27.70
2009,09,23,14,13,27.60
2009,09,23,14,14,27.60
2009,09,23,14,15,27.60
2009,09,23,14,16,27.70
2009,09,23,14,17,27.70
2009,09,23,14,18,27.60
2009,09,23,14,19,27.60
2009,09,23,14,20,27.70
2009,09,23,14,21,27.60
2009,09,23,14,22,27.60
2009,09,23,14,23,27.60
2009,09,23,14,24,27.60
2009,09,23,14,25,27.60
2009,09,23,14,26,27.70
2009,09,23,14,27,27.70
2009,09,23,14,28,27.70
2009,09,23,14,29,27.70
2009,09,23,14,30,27.70
2009,09,23,14,31,27.70
2009,09,23,14,32,27.70
2009,09,23,14,33,27.70
2009,09,23,14,34,27.60
2009,09,23,14,35,27.60
2009,09,23,14,36,27.70
2009,09,23,14,37,27.70
2009,09,23,14,38,27.80
2009,09,23,14,39,27.70
2009,09,23,14,40,27.70
2009,09,23,14,41,27.70
2009,09,23,14,42,27.70
2009,09,23,14,43,27.70
2009,09,23,14,44,27.70
2009,09,23,14,45,27.70
2009,09,23,14,46,27.70
2009,09,23,14,47,27.70
2009,09,23,14,48,27.70
2009,09,23,14,49,27.70
2009,09,23,14,50,27.80
2009,09,23,14,51,27.80
2009,09,23,14,52,27.80
2009,09,23,14,53,27.90
2009,09,23,14,54,28.00
2009,09,23,14,55,28.00
2009,09,23,14,56,28.00
2009,09,23,14,57,27.90
2009,09,23,14,58,27.90
2009,09,23,14,59,27.80
2009,09,23,15,00,27.80
2009,09,23,15,01,27.80
2009,09,23,15,02,27.80
2009,09,23,15,03,27.80
2009,09,23,15,04,27.90
2009,09,23,15,05,28.00
2009,09,23,15,06,28.00
2009,09,23,15,07,28.10
2009,09,23,15,08,28.10
2009,09,23,15,09,28.10
2009,09,23,15,10,28.00
2009,09,23,15,11,28.00
2009,09,23,15,12,28.00
2009,09,23,15,13,28.00
2009,09,23,15,14,28.00
2009,09,23,15,15,28.00
2009,09,23,15,16,28.00
2009,09,23,15,17,28.00
2009,09,23,15,18,28.00
2009,09,23,15,19,28.00
2009,09,23,15,20,28.00
2009,09,23,15,21,28.00
2009,09,23,15,22,28.00
2009,09,23,15,23,28.00
2009,09,23,15,24,28.00
2009,09,23,15,25,28.00
2009,09,23,15,26,28.00
2009,09,23,15,27,28.00
2009,09,23,15,28,28.00
2009,09,23,15,29,28.00
2009,09,23,15,30,28.00
2009,09,23,15,31,28.00
2009,09,23,15,32,28.00
2009,09,23,15,33,27.90
2009,09,23,15,34,27.80
2009,09,23,15,35,27.80
2009,09,23,15,36,27.70
2009,09,23,15,37,27.60
2009,09,23,15,38,27.60
2009,09,23,15,39,27.60
2009,09,23,15,40,27.60
2009,09,23,15,41,27.60
2009,09,23,15,42,27.60
2009,09,23,15,43,27.70
2009,09,23,15,44,27.70
2009,09,23,15,45,27.70
2009,09,23,15,46,27.60
2009,09,23,15,47,27.60
2009,09,23,15,48,27.60
2009,09,23,15,49,27.60
2009,09,23,15,50,27.60
2009,09,23,15,51,27.60
2009,09,23,15,52,27.60
2009,09,23,15,53,27.60
2009,09,23,15,54,27.60
2009,09,23,15,55,27.60
2009,09,23,15,56,27.60
2009,09,23,15,57,27.60
2009,09,23,15,58,27.70
2009,09,23,15,59,27.70
2009,09,23,16,00,27.80
2009,09,23,16,01,27.80
2009,09,23,16,02,27.80
2009,09,23,16,03,27.80
2009,09,23,16,04,27.80
2009,09,23,16,05,27.90
2009,09,23,16,06,27.90
2009,09,23,16,07,27.90
2009,09,23,16,08,28.00
2009,09,23,16,09,28.00
2009,09,23,16,10,27.90
2009,09,23,16,11,27.80
2009,09,23,16,12,27.80
2009,09,23,16,13,27.80
2009,09,23,16,14,27.80
2009,09,23,16,15,27.70
2009,09,23,16,16,27.60
2009,09,23,16,17,27.60
2009,09,23,16,18,27.60
2009,09,23,16,19,27.60
2009,09,23,16,20,27.60
2009,09,23,16,21,27.50
2009,09,23,16,22,27.40
2009,09,23,16,23,27.40
2009,09,23,16,24,27.40
2009,09,23,16,25,27.40
2009,09,23,16,26,27.40
2009,09,23,16,27,27.40
2009,09,23,16,28,27.40
2009,09,23,16,29,27.40
2009,09,23,16,30,27.40
2009,09,23,16,31,27.30
2009,09,23,16,32,27.40
2009,09,23,16,33,27.40
2009,09,23,16,34,27.40
2009,09,23,16,35,27.40
2009,09,23,16,36,27.40
2009,09,23,16,37,27.30
2009,09,23,16,38,27.30
2009,09,23,16,39,27.30
2009,09,23,16,40,27.30
2009,09,23,16,41,27.30
2009,09,23,16,42,27.30
2009,09,23,16,43,27.30
2009,09,23,16,44,27.30
2009,09,23,16,45,27.30
2009,09,23,16,46,27.30
2009,09,23,16,47,27.10
2009,09,23,16,48,27.10
2009,09,23,16,49,27.10
2009,09,23,16,50,27.00
2009,09,23,16,51,26.90
2009,09,23,16,52,26.90
2009,09,23,16,53,26.90
2009,09,23,16,54,26.90
2009,09,23,16,55,26.90
2009,09,23,16,56,27.00
2009,09,23,16,57,27.00
2009,09,23,16,58,26.90
2009,09,23,16,59,26.90
2009,09,23,17,00,26.90
2009,09,23,17,01,26.80
2009,09,23,17,02,26.80
2009,09,23,17,03,26.70
2009,09,23,17,04,26.60
2009,09,23,17,05,26.60
2009,09,23,17,06,26.60
2009,09,23,17,07,26.60
2009,09,23,17,08,26.60
2009,09,23,17,09,26.60
2009,09,23,17,10,26.60
2009,09,23,17,11,26.60
2009,09,23,17,12,26.60
2009,09,23,17,13,26.60
2009,09,23,17,14,26.50
2009,09,23,17,15,26.40
2009,09,23,17,16,26.40
2009,09,23,17,17,26.40
2009,09,23,17,18,26.40
2009,09,23,17,19,26.40